1282176029005,0.593371
1282176089005,0.586908
1282176149005,0.583764
1282176209005,0.597514
1282176269005,0.590441
1282176329005,0.587540
1282176389005,0.588348
1282176449005,0.593064
1282176509005,0.587792
1282176569005,0.581528
1282176629005,0.590017
1282176689005,0.586396
1282176749005,0.589181
1282176809005,0.587784
1282176869005,0.589122
1282176929005,0.592313
1282176989005,0.587150
1282177049005,0.586611
1282177109005,0.587153
1282177169005,0.587358
1282177229005,0.579197
1282177289005,0.586703
1282177349005,0.583124
1282177409005,0.586848
1282177469005,0.588523
1282177529005,0.585369
1282177589005,0.588007
1282177649005,0.581273
1282177709005,0.591211
1282177769005,0.589675
1282177829005,0.590376
1282177889005,0.583778
1282177949005,0.588932
1282178009005,0.586882
1282178069005,0.585019
1282178129005,0.580529
1282178189005,0.579544
1282178249005,0.581887
1282178309005,0.582310
1282178369005,0.590548
1282178429005,0.585978
1282178489005,0.589314
1282178549005,0.582084
1282178609005,0.582385
1282178669005,0.587514
1282178729005,0.582249
1282178789005,0.585404
1282178849005,0.584475
1282178909005,0.584681
1282178969005,0.587105
1282179029005,0.583636
1282179089005,0.586368
1282179149005,0.586798
1282179209005,0.594374
1282179269005,0.589133
1282179329005,0.586023
1282179389005,0.584674
1282179449005,0.584554
1282179509005,0.582867
1282179569005,0.581209
1282179629014,0.584386
1282179689014,0.576701
1282179749014,0.585734
1282179809014,0.582962
1282179869014,0.587641
1282179929014,0.589829
1282179989014,0.580037
1282180049014,0.587442
1282180109014,0.589203
1282180169014,0.582722
1282180229014,0.581444
1282180289014,0.579937
1282180349014,0.586971
1282180409014,0.593264
1282180469014,0.577249
1282180529014,0.585151
1282180589014,0.585073
1282180649014,0.584475
1282180709014,0.582325
1282180769014,0.594525
1282180829014,0.587820
1282180889014,0.589934
1282180949014,0.583911
1282181009014,0.589782
1282181069014,0.585471
1282181129014,0.579590
1282181189014,0.589164
1282181249014,0.579199
1282181309014,0.581310
1282181369014,0.583320
1282181429014,0.586747
1282181489014,0.583130
1282181549014,0.585139
1282181609014,0.579455
1282181669014,0.578324
1282181729014,0.585868
1282181789014,0.589802
1282181849014,0.578695
1282181909014,0.591374
1282181969014,0.579028
1282182029014,0.589394
1282182089014,0.584913
1282182149014,0.586261
1282182209014,0.589061
1282182269014,0.589659
1282182329014,0.587517
1282182389014,0.589979
1282182449014,0.580459
1282182509014,0.583935
1282182569014,0.589341
1282182629014,0.581895
1282182689014,0.577708
1282182749014,0.583495
1282182809014,0.583897
1282182869014,0.580900
1282182929014,0.575164
1282182989014,0.583382
1282183049014,0.586495
1282183109014,0.584486
1282183169014,0.582828
1282183229023,0.588350
1282183289023,0.585207
1282183349023,0.584251
1282183409023,0.582721
1282183469023,0.586251
1282183529023,0.583626
1282183589023,0.579960
1282183649023,0.587112
1282183709023,0.580435
1282183769023,0.586763
1282183829023,0.583281
1282183889023,0.582257
1282183949023,0.581621
1282184009023,0.579673
1282184069023,0.577264
1282184129023,0.578382
1282184189023,0.587552
1282184249023,0.581601
1282184309023,0.583454
1282184369023,0.587470
1282184429023,0.578843
1282184489023,0.584466
1282184549023,0.582933
1282184609023,0.582686
1282184669023,0.583645
1282184729023,0.577477
1282184789023,0.582416
1282184849023,0.585525
1282184909023,0.578184
1282184969023,0.580723
1282185029023,0.583519
1282185089023,0.585517
1282185149023,0.579730
1282185209023,0.586325
1282185269023,0.582874
1282185329023,0.580893
1282185389023,0.583832
1282185449023,0.583038
1282185509023,0.584047
1282185569023,0.583904
1282185629023,0.579601
1282185689023,0.583722
1282185749023,0.581111
1282185809023,0.583354
1282185869023,0.578643
1282185929023,0.584419
1282185989023,0.579147
1282186049023,0.578443
1282186109023,0.581659
1282186169023,0.580569
1282186229023,0.582377
1282186289023,0.575589
1282186349023,0.578962
1282186409023,0.575567
1282186469023,0.576500
1282186529023,0.577454
1282186589023,0.578656
1282186649023,0.578996
1282186709023,0.576589
1282186769023,0.573772
1282186829032,0.585250
1282186889032,0.580332
1282186949032,0.583878
1282187009032,0.580520
1282187069032,0.580156
1282187129032,0.568813
1282187189032,0.581047
1282187249032,0.583266
1282187309032,0.578180
1282187369032,0.573261
1282187429032,0.577945
1282187489032,0.581460
1282187549032,0.586808
1282187609032,0.580888
1282187669032,0.575003
1282187729032,0.574636
1282187789032,0.579498
1282187849032,0.580120
1282187909032,0.577544
1282187969032,0.579935
1282188029032,0.575613
1282188089032,0.577798
1282188149032,0.582482
1282188209032,0.577062
1282188269032,0.576206
1282188329032,0.569595
1282188389032,0.579656
1282188449032,0.579464
1282188509032,0.576475
1282188569032,0.577665
1282188629032,0.580314
1282188689032,0.582287
1282188749032,0.582594
1282188809032,0.576962
1282188869032,0.576491
1282188929032,0.582939
1282188989032,0.581120
1282189049032,0.573651
1282189109032,0.573550
1282189169032,0.578016
1282189229032,0.579954
1282189289032,0.583965
1282189349032,0.576222
1282189409032,0.578422
1282189469032,0.579468
1282189529032,0.579514
1282189589032,0.580552
1282189649032,0.584658
1282189709032,0.579223
1282189769032,0.583967
1282189829032,0.577640
1282189889032,0.574705
1282189949032,0.581291
1282190009032,0.581311
1282190069032,0.577153
1282190129032,0.574963
1282190189032,0.573961
1282190249032,0.576141
1282190309032,0.577675
1282190369032,0.579491
1282190429041,0.577810
1282190489041,0.579243
1282190549041,0.576883
1282190609041,0.580815
1282190669041,0.580605
1282190729041,0.577119
1282190789041,0.581232
1282190849041,0.579024
1282190909041,0.583033
1282190969041,0.583331
1282191029041,0.578451
1282191089041,0.579818
1282191149041,0.582694
1282191209041,0.579087
1282191269041,0.577265
1282191329041,0.574873
1282191389041,0.575971
1282191449041,0.578535
1282191509041,0.576531
1282191569041,0.579376
1282191629041,0.580540
1282191689041,0.577321
1282191749041,0.583930
1282191809041,0.578379
1282191869041,0.583301
1282191929041,0.575900
1282191989041,0.579159
1282192049041,0.584836
1282192109041,0.575525
1282192169041,0.579534
1282192229041,0.574915
1282192289041,0.582642
1282192349041,0.574352
1282192409041,0.575918
1282192469041,0.582750
1282192529041,0.574405
1282192589041,0.577395
1282192649041,0.573482
1282192709041,0.571775
1282192769041,0.578479
1282192829041,0.579438
1282192889041,0.570946
1282192949041,0.577989
1282193009041,0.580549
1282193069041,0.581318
1282193129041,0.584173
1282193189041,0.577782
1282193249041,0.577023
1282193309041,0.575538
1282193369041,0.574332
1282193429041,0.579972
1282193489041,0.581848
1282193549041,0.575003
1282193609041,0.566755
1282193669041,0.580312
1282193729041,0.583983
1282193789041,0.581719
1282193849041,0.578795
1282193909041,0.578544
1282193969041,0.574308
1282194029050,0.576379
1282194089050,0.579084
1282194149050,0.575138
1282194209050,0.576705
1282194269050,0.578081
1282194329050,0.573614
1282194389050,0.576879
1282194449050,0.577542
1282194509050,0.580600
1282194569050,0.582150
1282194629050,0.573907
1282194689050,0.575388
1282194749050,0.571315
1282194809050,0.585190
1282194869050,0.572169
1282194929050,0.573481
1282194989050,0.580451
1282195049050,0.581691
1282195109050,0.581738
1282195169050,0.576819
1282195229050,0.577186
1282195289050,0.576444
1282195349050,0.573334
1282195409050,0.577591
1282195469050,0.578626
1282195529050,0.571147
1282195589050,0.575757
1282195649050,0.573305
1282195709050,0.573060
1282195769050,0.578283
1282195829050,0.577074
1282195889050,0.580721
1282195949050,0.575010
1282196009050,0.576849
1282196069050,0.577736
1282196129050,0.576757
1282196189050,0.576493
1282196249050,0.578206
1282196309050,0.575671
1282196369050,0.572359
1282196429050,0.573327
1282196489050,0.576039
1282196549050,0.579488
1282196609050,0.571852
1282196669050,0.574334
1282196729050,0.573116
1282196789050,0.578126
1282196849050,0.575533
1282196909050,0.572098
1282196969050,0.576671
1282197029050,0.574732
1282197089050,0.574702
1282197149050,0.570530
1282197209050,0.575386
1282197269050,0.571939
1282197329050,0.579962
1282197389050,0.574082
1282197449050,0.575574
1282197509050,0.573699
1282197569050,0.576673
1282197629058,0.576351
1282197689058,0.578781
1282197749058,0.581684
1282197809058,0.573917
1282197869058,0.571977
1282197929058,0.565438
1282197989058,0.578373
1282198049058,0.571398
1282198109058,0.570826
1282198169058,0.572854
1282198229058,0.576208
1282198289058,0.579007
1282198349058,0.579939
1282198409058,0.578669
1282198469058,0.576529
1282198529058,0.582035
1282198589058,0.572601
1282198649058,0.571211
1282198709058,0.576822
1282198769058,0.578508
1282198829058,0.573871
1282198889058,0.571944
1282198949058,0.581493
1282199009058,0.572553
1282199069058,0.575283
1282199129058,0.572130
1282199189058,0.578906
1282199249058,0.575257
1282199309058,0.574466
1282199369058,0.575575
1282199429058,0.572056
1282199489058,0.568296
1282199549058,0.574883
1282199609058,0.573410
1282199669058,0.572483
1282199729058,0.580496
1282199789058,0.572507
1282199849058,0.576788
1282199909058,0.577577
1282199969058,0.571149
1282200029058,0.576380
1282200089058,0.577397
1282200149058,0.575674
1282200209058,0.574598
1282200269058,0.569730
1282200329058,0.578960
1282200389058,0.575613
1282200449058,0.577435
1282200509058,0.574396
1282200569058,0.570279
1282200629058,0.572380
1282200689058,0.571004
1282200749058,0.570752
1282200809058,0.574936
1282200869058,0.575405
1282200929058,0.579553
1282200989058,0.572650
1282201049058,0.571422
1282201109058,0.570570
1282201169058,0.574833
1282201229067,0.578259
1282201289067,0.569277
1282201349067,0.572789
1282201409067,0.578266
1282201469067,0.572134
1282201529067,0.579216
1282201589067,0.571570
1282201649067,0.577911
1282201709067,0.572788
1282201769067,0.572890
1282201829067,0.576561
1282201889067,0.576694
1282201949067,0.574801
1282202009067,0.579216
1282202069067,0.574777
1282202129067,0.576957
1282202189067,0.571297
1282202249067,0.575653
1282202309067,0.579056
1282202369067,0.571961
1282202429067,0.572675
1282202489067,0.576459
1282202549067,0.570333
1282202609067,0.573894
1282202669067,0.571045
1282202729067,0.571466
1282202789067,0.577341
1282202849067,0.573072
1282202909067,0.577269
1282202969067,0.567674
1282203029067,0.575235
1282203089067,0.575222
1282203149067,0.572605
1282203209067,0.573114
1282203269067,0.573926
1282203329067,0.578767
1282203389067,0.580005
1282203449067,0.577604
1282203509067,0.568152
1282203569067,0.572667
1282203629067,0.579963
1282203689067,0.572476
1282203749067,0.578907
1282203809067,0.572634
1282203869067,0.573110
1282203929067,0.569560
1282203989067,0.577421
1282204049067,0.578641
1282204109067,0.574853
1282204169067,0.574990
1282204229067,0.579940
1282204289067,0.575502
1282204349067,0.575601
1282204409067,0.578344
1282204469067,0.574972
1282204529067,0.578325
1282204589067,0.572373
1282204649067,0.574831
1282204709067,0.572689
1282204769067,0.578057
1282204829076,0.579280
1282204889076,0.576490
1282204949076,0.572958
1282205009076,0.574456
1282205069076,0.579669
1282205129076,0.584008
1282205189076,0.573891
1282205249076,0.573292
1282205309076,0.574826
1282205369076,0.579699
1282205429076,0.580022
1282205489076,0.574190
1282205549076,0.577665
1282205609076,0.573647
1282205669076,0.579291
1282205729076,0.575337
1282205789076,0.572712
1282205849076,0.578549
1282205909076,0.582045
1282205969076,0.578382
1282206029076,0.573296
1282206089076,0.579289
1282206149076,0.576405
1282206209076,0.576273
1282206269076,0.571855
1282206329076,0.576672
1282206389076,0.575720
1282206449076,0.573311
1282206509076,0.580373
1282206569076,0.576898
1282206629076,0.578052
1282206689076,0.578107
1282206749076,0.578090
1282206809076,0.574809
1282206869076,0.569526
1282206929076,0.569829
1282206989076,0.575577
1282207049076,0.575875
1282207109076,0.574110
1282207169076,0.574248
1282207229076,0.574782
1282207289076,0.572159
1282207349076,0.575614
1282207409076,0.577231
1282207469076,0.581226
1282207529076,0.574099
1282207589076,0.575564
1282207649076,0.577887
1282207709076,0.577111
1282207769076,0.576476
1282207829076,0.567766
1282207889076,0.579769
1282207949076,0.581218
1282208009076,0.570313
1282208069076,0.574747
1282208129076,0.569052
1282208189076,0.575966
1282208249076,0.572474
1282208309076,0.575118
1282208369076,0.575514
1282208429085,0.574722
1282208489085,0.578583
1282208549085,0.572726
1282208609085,0.573336
1282208669085,0.569675
1282208729085,0.571979
1282208789085,0.571571
1282208849085,0.575182
1282208909085,0.572020
1282208969085,0.578101
1282209029085,0.573338
1282209089085,0.580604
1282209149085,0.566839
1282209209085,0.574862
1282209269085,0.573659
1282209329085,0.579994
1282209389085,0.575504
1282209449085,0.577547
1282209509085,0.577972
1282209569085,0.576114
1282209629085,0.574827
1282209689085,0.571407
1282209749085,0.575914
1282209809085,0.576485
1282209869085,0.576168
1282209929085,0.573760
1282209989085,0.581494
1282210049085,0.574784
1282210109085,0.574791
1282210169085,0.574738
1282210229085,0.570583
1282210289085,0.569728
1282210349085,0.581731
1282210409085,0.578543
1282210469085,0.575659
1282210529085,0.574385
1282210589085,0.576386
1282210649085,0.573463
1282210709085,0.573463
1282210769085,0.575970
1282210829085,0.581683
1282210889085,0.580547
1282210949085,0.573595
1282211009085,0.579355
1282211069085,0.578857
1282211129085,0.575060
1282211189085,0.578594
1282211249085,0.578340
1282211309085,0.573847
1282211369085,0.576435
1282211429085,0.575594
1282211489085,0.572518
1282211549085,0.581257
1282211609085,0.581321
1282211669085,0.577649
1282211729085,0.574985
1282211789085,0.575186
1282211849085,0.581159
1282211909085,0.581387
1282211969085,0.578921
1282212029094,0.580350
1282212089094,0.580857
1282212149094,0.585740
1282212209094,0.576009
1282212269094,0.580391
1282212329094,0.571792
1282212389094,0.575095
1282212449094,0.583130
1282212509094,0.582798
1282212569094,0.576554
1282212629094,0.583888
1282212689094,0.583381
1282212749094,0.586007
1282212809094,0.582395
1282212869094,0.578306
1282212929094,0.580815
1282212989094,0.581995
1282213049094,0.576287
1282213109094,0.585299
1282213169094,0.587573
1282213229094,0.578882
1282213289094,0.577008
1282213349094,0.582535
1282213409094,0.582152
1282213469094,0.578733
1282213529094,0.577282
1282213589094,0.578299
1282213649094,0.575942
1282213709094,0.580004
1282213769094,0.578803
1282213829094,0.579132
1282213889094,0.583567
1282213949094,0.575837
1282214009094,0.576095
1282214069094,0.577603
1282214129094,0.576926
1282214189094,0.575481
1282214249094,0.572156
1282214309094,0.578929
1282214369094,0.575547
1282214429094,0.577136
1282214489094,0.568288
1282214549094,0.573868
1282214609094,0.577196
1282214669094,0.574429
1282214729094,0.576795
1282214789094,0.584419
1282214849094,0.573568
1282214909094,0.573645
1282214969094,0.576207
1282215029094,0.574911
1282215089094,0.576051
1282215149094,0.579570
1282215209094,0.576624
1282215269094,0.569981
1282215329094,0.568266
1282215389094,0.571616
1282215449094,0.578053
1282215509094,0.574000
1282215569094,0.581924
1282215629103,0.574973
1282215689103,0.577128
1282215749103,0.579328
1282215809103,0.577230
1282215869103,0.572208
1282215929103,0.577818
1282215989103,0.574718
1282216049103,0.568015
1282216109103,0.576016
1282216169103,0.570117
1282216229103,0.577395
1282216289103,0.570831
1282216349103,0.575797
1282216409103,0.571525
1282216469103,0.576668
1282216529103,0.572889
1282216589103,0.568135
1282216649103,0.571301
1282216709103,0.572416
1282216769103,0.578395
1282216829103,0.574485
1282216889103,0.572324
1282216949103,0.571135
1282217009103,0.570567
1282217069103,0.573135
1282217129103,0.570985
1282217189103,0.572965
1282217249103,0.571492
1282217309103,0.567656
1282217369103,0.567532
1282217429103,0.569776
1282217489103,0.572942
1282217549103,0.576014
1282217609103,0.575960
1282217669103,0.577306
1282217729103,0.569552
1282217789103,0.572058
1282217849103,0.570049
1282217909103,0.569753
1282217969103,0.573436
1282218029103,0.566554
1282218089103,0.574568
1282218149103,0.576242
1282218209103,0.575075
1282218269103,0.572495
1282218329103,0.569385
1282218389103,0.572721
1282218449103,0.576164
1282218509103,0.569002
1282218569103,0.569208
1282218629103,0.567925
1282218689103,0.568780
1282218749103,0.575721
1282218809103,0.571089
1282218869103,0.571870
1282218929103,0.570672
1282218989103,0.571178
1282219049103,0.572315
1282219109103,0.572992
1282219169103,0.576998
1282219229113,0.568899
1282219289113,0.571012
1282219349113,0.575382
1282219409113,0.578577
1282219469113,0.566517
1282219529113,0.575977
1282219589113,0.572055
1282219649113,0.575132
1282219709113,0.564296
1282219769113,0.568284
1282219829113,0.570069
1282219889113,0.570251
1282219949113,0.570560
1282220009113,0.571555
1282220069113,0.574141
1282220129113,0.571833
1282220189113,0.566974
1282220249113,0.572368
1282220309113,0.568870
1282220369113,0.578408
1282220429113,0.564289
1282220489113,0.568847
1282220549113,0.573426
1282220609113,0.568541
1282220669113,0.570608
1282220729113,0.576495
1282220789113,0.568309
1282220849113,0.575854
1282220909112,0.564351
1282220969113,0.575057
1282221029113,0.566319
1282221089113,0.575958
1282221149113,0.568992
1282221209113,0.578744
1282221269113,0.571866
1282221329113,0.575055
1282221389113,0.570064
1282221449113,0.572413
1282221509113,0.568296
1282221569113,0.572677
1282221629113,0.561466
1282221689113,0.565603
1282221749113,0.570320
1282221809113,0.572945
1282221869113,0.572174
1282221929113,0.571804
1282221989113,0.570224
1282222049113,0.574241
1282222109113,0.568856
1282222169113,0.571039
1282222229113,0.573333
1282222289113,0.568828
1282222349113,0.571089
1282222409113,0.566367
1282222469113,0.569533
1282222529113,0.564366
1282222589113,0.572606
1282222649113,0.563647
1282222709113,0.571400
1282222769113,0.566115
1282222829122,0.571545
1282222889122,0.565745
1282222949122,0.568612
1282223009122,0.574368
1282223069122,0.562528
1282223129122,0.572659
1282223189122,0.568602
1282223249122,0.568521
1282223309122,0.571610
1282223369122,0.570460
1282223429122,0.562855
1282223489122,0.563075
1282223549122,0.567375
1282223609122,0.566294
1282223669122,0.566828
1282223729122,0.572043
1282223789122,0.565363
1282223849122,0.569146
1282223909122,0.572219
1282223969122,0.567406
1282224029122,0.567304
1282224089122,0.567685
1282224149122,0.563718
1282224209122,0.571127
1282224269122,0.565215
1282224329122,0.568913
1282224389122,0.567110
1282224449122,0.569383
1282224509122,0.569679
1282224569122,0.573754
1282224629122,0.568121
1282224689122,0.568613
1282224749122,0.572090
1282224809122,0.566889
1282224869122,0.571626
1282224929122,0.569064
1282224989122,0.569226
1282225049122,0.560428
1282225109122,0.568584
1282225169122,0.564858
1282225229122,0.567672
1282225289122,0.570402
1282225349122,0.563025
1282225409122,0.570631
1282225469122,0.563602
1282225529122,0.561011
1282225589122,0.571944
1282225649122,0.566811
1282225709122,0.567475
1282225769122,0.570386
1282225829122,0.569439
1282225889122,0.568078
1282225949122,0.560481
1282226009122,0.564217
1282226069122,0.568452
1282226129122,0.565556
1282226189122,0.566184
1282226249122,0.561057
1282226309122,0.573140
1282226369122,0.571891
1282226429132,0.573311
1282226489132,0.570568
1282226549132,0.569383
1282226609132,0.574713
1282226669132,0.568074
1282226729132,0.565735
1282226789132,0.570339
1282226849132,0.566119
1282226909132,0.568809
1282226969132,0.568109
1282227029132,0.571362
1282227089132,0.566785
1282227149132,0.570450
1282227209132,0.567570
1282227269132,0.568607
1282227329132,0.571636
1282227389132,0.566916
1282227449132,0.566831
1282227509132,0.570036
1282227569132,0.568247
1282227629132,0.570981
1282227689132,0.573188
1282227749132,0.568830
1282227809132,0.570819
1282227869132,0.563653
1282227929132,0.565143
1282227989132,0.571752
1282228049132,0.571258
1282228109132,0.566314
1282228169132,0.570626
1282228229132,0.567655
1282228289132,0.568164
1282228349132,0.564032
1282228409132,0.564426
1282228469132,0.564109
1282228529132,0.564410
1282228589132,0.567985
1282228649132,0.568121
1282228709132,0.565831
1282228769132,0.568680
1282228829132,0.566395
1282228889132,0.575557
1282228949132,0.570141
1282229009132,0.565648
1282229069132,0.570473
1282229129132,0.565935
1282229189132,0.568994
1282229249132,0.570289
1282229309132,0.570163
1282229369132,0.570998
1282229429132,0.572108
1282229489132,0.571464
1282229549132,0.566188
1282229609132,0.557898
1282229669132,0.568085
1282229729132,0.571344
1282229789132,0.569566
1282229849132,0.568940
1282229909132,0.567018
1282229969132,0.565684
1282230029142,0.569590
1282230089142,0.567771
1282230149142,0.571459
1282230209142,0.564601
1282230269142,0.566462
1282230329142,0.570653
1282230389142,0.567360
1282230449142,0.563681
1282230509142,0.569625
1282230569142,0.566184
1282230629142,0.568501
1282230689142,0.570860
1282230749142,0.567711
1282230809142,0.568088
1282230869142,0.572430
1282230929142,0.564259
1282230989142,0.570050
1282231049142,0.570893
1282231109142,0.564374
1282231169142,0.568079
1282231229142,0.569546
1282231289142,0.569339
1282231349142,0.567833
1282231409142,0.568213
1282231469142,0.571583
1282231529142,0.567694
1282231589142,0.572042
1282231649142,0.564494
1282231709142,0.565684
1282231769142,0.562747
1282231829142,0.570666
1282231889142,0.567950
1282231949142,0.574257
1282232009142,0.572701
1282232069142,0.562181
1282232129142,0.568890
1282232189142,0.572757
1282232249142,0.566270
1282232309142,0.565213
1282232369142,0.566214
1282232429142,0.566453
1282232489142,0.564846
1282232549142,0.566828
1282232609142,0.568609
1282232669142,0.574488
1282232729142,0.566288
1282232789142,0.570581
1282232849142,0.572496
1282232909142,0.570757
1282232969142,0.568781
1282233029142,0.566734
1282233089142,0.574134
1282233149142,0.569963
1282233209142,0.575180
1282233269142,0.574442
1282233329142,0.563626
1282233389142,0.569141
1282233449142,0.571171
1282233509142,0.575019
1282233569142,0.570058
1282233629152,0.571037
1282233689152,0.571180
1282233749152,0.565157
1282233809152,0.565435
1282233869152,0.568599
1282233929152,0.573849
1282233989152,0.570213
1282234049152,0.573463
1282234109152,0.571667
1282234169152,0.570036
1282234229152,0.576320
1282234289152,0.568873
1282234349152,0.570617
1282234409152,0.579010
1282234469152,0.571567
1282234529152,0.587851
1282234589152,0.571632
1282234649152,0.572647
1282234709152,0.575688
1282234769152,0.573740
1282234829152,0.569143
1282234889152,0.570251
1282234949152,0.570183
1282235009152,0.577933
1282235069152,0.579893
1282235129152,0.573558
1282235189152,0.567383
1282235249152,0.571053
1282235309152,0.581144
1282235369152,0.577338
1282235429152,0.566190
1282235489152,0.575045
1282235549152,0.578282
1282235609152,0.576781
1282235669152,0.575355
1282235729152,0.571841
1282235789152,0.577602
1282235849152,0.569283
1282235909152,0.565485
1282235969152,0.578208
1282236029152,0.575033
1282236089152,0.572352
1282236149152,0.573144
1282236209152,0.569988
1282236269152,0.569483
1282236329152,0.574900
1282236389152,0.566708
1282236449152,0.574650
1282236509152,0.573183
1282236569152,0.570770
1282236629152,0.572655
1282236689152,0.574870
1282236749152,0.572141
1282236809152,0.573965
1282236869152,0.576430
1282236929152,0.574700
1282236989152,0.572718
1282237049152,0.568920
1282237109152,0.565351
1282237169152,0.570102
1282237229162,0.568112
1282237289162,0.572351
1282237349162,0.569869
1282237409162,0.574739
1282237469162,0.569900
1282237529162,0.577042
1282237589162,0.571401
1282237649162,0.569847
1282237709162,0.564508
1282237769162,0.563827
1282237829162,0.564691
1282237889162,0.570381
1282237949162,0.569498
1282238009162,0.573803
1282238069162,0.572921
1282238129162,0.571564
1282238189162,0.568366
1282238249162,0.575854
1282238309162,0.567679
1282238369162,0.573987
1282238429162,0.565316
1282238489162,0.566422
1282238549162,0.574010